Flag for U.S.A. Weather past 2 weeks in Alexandria, Virginia, U.S.A.

59 °F

Passing clouds.

Feels Like: 59 °F
Forecast: 58 / 76 °F
Wind: No wind

Location: Reagan National Airport

Current Time: Oct 7, 2015 at 3:43:58 AM

Latest Report: Oct 7, 2015 at 2:52 AM

Visibility: 10 mi

Pressure: 30.00 "Hg

Humidity: 93%

Dew point: 57 °F

Location of AlexandriaLocation

Historic Weather in Alexandria — Graph


Alexandria temperature yesterday

Maximum temperature yesterday: 76 °F (at 3:52 PM)
Minimum temperature yesterday: 51 °F (at 4:52 AM)
Average temperature yesterday: 63 °F

Past Weeks' High & Low Weather Summary

High82 °F (Sep 28, 4:52 PM)100% (Sep 29, 10:01 PM)30.40 "Hg (Sep 29, 10:01 PM)
Low50 °F (Oct 3, 3:52 AM)29% (Sep 23, 3:52 PM)29.69 "Hg (Sep 30, 4:56 AM)
Average65 °F76%30.14 "Hg
* Reported Sep 22 1:52 AM — Oct 7 1:52 AM, Alexandria, Weather by CustomWeather, © 2015

Note: Actual official high and low records may vary slightly from our data, if they occured in-between our weather recording intervals... More about our weather records


Alexandria weather history for previous 24 hours

Time TempWeatherWind HumidityBarometerVisibility
1:52 AM
Wed, Oct 7
59 °FPassing clouds.No wind96%30.00 "Hg10 mi
12:52 AM60 °FPassing clouds.No wind93%30.00 "Hg10 mi
11:52 PM
Tue, Oct 6
61 °FPassing clouds.No wind87%30.00 "Hg10 mi
10:52 PM61 °FPassing clouds.3 mph87%30.00 "Hg10 mi
9:52 PM62 °FClear.6 mph83%29.99 "Hg10 mi
8:52 PM64 °FPassing clouds.No wind73%30.00 "Hg10 mi
7:52 PM70 °FPassing clouds.8 mph53%30.00 "Hg10 mi
6:52 PM71 °FPartly sunny.8 mph49%30.00 "Hg10 mi
5:52 PM74 °FPartly sunny.8 mph43%30.00 "Hg10 mi
4:52 PM76 °FScattered clouds.9 mph40%30.00 "Hg10 mi
3:52 PM76 °FPassing clouds.No wind39%30.00 "Hg10 mi
2:52 PM75 °FPassing clouds.3 mph40%30.02 "Hg10 mi
1:52 PM73 °FScattered clouds.5 mph43%30.04 "Hg10 mi
12:52 PM72 °FPassing clouds.5 mph44%30.06 "Hg10 mi
11:52 AM69 °FPassing clouds.No wind51%30.08 "Hg10 mi
10:52 AM63 °FPassing clouds.No wind63%30.09 "Hg10 mi
9:52 AM62 °FPassing clouds.6 mph65%30.11 "Hg10 mi
8:52 AM57 °FPassing clouds.5 mph78%30.11 "Hg10 mi
7:52 AM53 °FPassing clouds.5 mph83%30.11 "Hg10 mi
6:52 AM51 °FPassing clouds.5 mph86%30.09 "Hg10 mi
5:52 AM51 °FPassing clouds.5 mph89%30.09 "Hg10 mi
4:52 AM51 °FPassing clouds.6 mph89%30.08 "Hg10 mi
3:52 AM52 °FPassing clouds.5 mph89%30.08 "Hg10 mi
Weather by CustomWeather, © 2015

See weather overviewHow to use our weather pages